This is the latest recevied weather packets stored in our database for station/object KA3WVU. If no packets are shown the sender has not sent any weather packets the latest 10 day(s).
| Time | Temp. | Humidity | Pressure | Rain* | Wind** | Luminosity | Snow |
|---|---|---|---|---|---|---|---|
| 1778028300 | 16.67° C | 66% | 1008.8 hPa | 0 mm | - | 0 W/m² | - |
| 1778027995 | 16.67° C | 66% | 1008.8 hPa | 0 mm | - | 0 W/m² | - |
| 1778027692 | 16.67° C | 66% | 1008.8 hPa | 0 mm | - | 0 W/m² | - |
| 1778027389 | 16.67° C | 66% | 1008.8 hPa | 0 mm | - | 0 W/m² | - |
| 1778027085 | 17.22° C | 65% | 1008.8 hPa | 0 mm | - | 0 W/m² | - |
| 1778026780 | 17.22° C | 65% | 1008.8 hPa | 0 mm | - | 1 W/m² | - |
| 1778026478 | 17.22° C | 64% | 1008.9 hPa | 0 mm | - | 1 W/m² | - |
| 1778026175 | 17.22° C | 64% | 1008.9 hPa | 0 mm | - | 2 W/m² | - |
| 1778025872 | 17.22° C | 64% | 1008.9 hPa | 0 mm | - | 2 W/m² | - |
| 1778025569 | 17.78° C | 63% | 1008.7 hPa | 0 mm | - | 3 W/m² | - |
| 1778025267 | 17.78° C | 63% | 1009 hPa | 0 mm | - | 5 W/m² | - |
| 1778024964 | 17.78° C | 64% | 1008.9 hPa | 0 mm | - | 9 W/m² | - |
| 1778024661 | 17.78° C | 64% | 1008.8 hPa | 0 mm | - | 12 W/m² | - |
| 1778024358 | 17.78° C | 64% | 1008.6 hPa | 0 mm | - | 15 W/m² | - |
| 1778024056 | 17.78° C | 62% | 1008.6 hPa | 0 mm | - | 13 W/m² | - |
| 1778023753 | 17.78° C | 62% | 1008.8 hPa | 0 mm | - | 11 W/m² | - |
| 1778023451 | 17.78° C | 62% | 1008.8 hPa | 0 mm | - | 14 W/m² | - |
| 1778023147 | 18.33° C | 62% | 1008.6 hPa | 0 mm | - | 26 W/m² | - |
| 1778022845 | 18.33° C | 62% | 1008.6 hPa | 0 mm | - | 21 W/m² | - |
| 1778022543 | 18.33° C | 61% | 1008.5 hPa | 0 mm | - | 32 W/m² | - |
| 1778022240 | 18.33° C | 61% | 1008.5 hPa | 0 mm | - | 26 W/m² | - |
| 1778021936 | 18.33° C | 61% | 1008.7 hPa | 0 mm | - | 17 W/m² | - |
| 1778021634 | 18.33° C | 60% | 1008.6 hPa | 0 mm | - | 20 W/m² | - |
| 1778021329 | 18.33° C | 60% | 1008.8 hPa | 0 mm | - | 24 W/m² | - |
| 1778021027 | 18.33° C | 59% | 1008.5 hPa | 0 mm | - | 30 W/m² | - |
* Rain latest hour (hover to see other rain measurements)
** Current wind speed in m/s (hover to see current wind gust speed)